Regional Weather Roundup
Issued by NWS

Home | Current Version | Previous Version | Text Only | Print | Product List | Glossary Off
Versions: 1 2 3 4 5 6 7 8 9 10 11 12 13 14 15 16 17 18 19 20 21 22 23 24 25 26 27 28 29 30 31 32 33 34 35 36 37 38 39 40 41 42 43 44 45 46 47 48 49 50

168
ASUS43 KLOT 260103
RWRIL

ILLINOIS REGIONAL WEATHER ROUNDUP
NATIONAL WEATHER SERVICE CHICAGO/ROMEOVILLE IL
800 PM CDT MON SEP 25 2017

NOTE: "FAIR" INDICATES FEW OR NO CLOUDS BELOW 12,000 FEET WITH NO
SIGNIFICANT WEATHER AND/OR OBSTRUCTIONS TO VISIBILITY.

* THESE STATIONS ARE NOT UNDER NWS QUALITY CONTROL. THEY ALSO MAY NOT
  REPORT WEATHER SUCH AS PRECIPITATION OR FOG.

ILZ001-002-007-009-015-016-024-260200-
NORTHWEST ILLINOIS

CITY           SKY/WX    TMP DP  RH WIND       PRES   REMARKS
MOLINE         CLOUDY    73  69  87 CALM      29.89S
STERLING*      CLOUDY    72  61  68 CALM      29.92R
SAVANNA*       CLOUDY    77  65  66 CALM      29.91R
$$

ILZ003-004-008-010-011-017-018-260200-
NORTH CENTRAL ILLINOIS

CITY           SKY/WX    TMP DP  RH WIND       PRES   REMARKS
ROCKFORD       PTCLDY    78  58  49 SW5       29.93R
FREEPORT*      CLEAR     72  60  65 SW5       29.94S
ROCHELLE*      CLEAR     73  60  63 SE6       29.94R
DE KALB*       CLEAR     75  60  58 SE5       29.96R
$$

ILZ005-006-012>014-019>023-260200-
NORTHEAST ILLINOIS

CITY           SKY/WX    TMP DP  RH WIND       PRES   REMARKS
CHICAGO-OHARE  PTCLDY    81  55  40 SE8       29.93R HX  81
CHICAGO-MIDWAY PTCLDY    82  59  45 SE7       29.94R HX  82
AURORA         CLOUDY    78  62  57 SE6       29.94R HX  80
LANSING*       CLEAR     75  62  62 SE3       29.95R
JOLIET*        PTCLDY    82  60  48 SE3       29.94R HX  82
WAUKEGAN       CLEAR     76  63  64 SE6       29.94R
DUPAGE AIRPORT CLEAR     80  60  50 SE3       29.94R HX  81
KANKAKEE*      CLEAR     76  61  59 SE5       29.95S
WHEELING       CLEAR     79  59  50 SE5       29.95R HX  80
MORRIS*        MOCLDY    79  61  54 SE5       29.93R HX  80
NORTHERLY ISL    N/A     74  63  68 S3          N/A
$$

LMZ740>746-260200-
SOUTHERN LAKE MICHIGAN

STATION/POSITION SKY/WX   TEMP    WIND        PRES    VSBY  WAVE
                          AIR SEA DIR/SP/G                  HT/PER
                          (F)     (DEG/KT/KT) (MB)    (MI)  (FT/S)
SOUTHERN BUOY              74 71  110/  6/  6 1013.8          0
WILMETTE HARBOR            75 72  120/  6/  8   N/A           1/ 2
HARRISON CRIB              79     130/ 14/ 14   N/A
BURNHAM HARBOR             74                   N/A
CALUMET HARBOR             78     100/  6/  7 1013.3R
BURNS HARBOR               84     150/  3/ 10 1014.6R
MICHIGAN CITY              80     120/  5/  5   N/A
MICHIGAN CITY 6N           76 73  140/  4/  4   N/A           0
ST. JOSEPH                 76 74  160/  4/  4 1013.8R         0
$$

ILZ025>027-034>036-040-047-049-050-058-095>099-260200-
WEST-CENTRAL ILLINOIS

CITY           SKY/WX    TMP DP  RH WIND       PRES   REMARKS
QUINCY         PTCLDY    76  66  71 S6        29.92R
GALESBURG*     CLEAR     70  63  77 CALM      29.93R
MACOMB*        CLEAR     75  65  70 W6        29.93R
$$

ILZ028>032-037-038-041>044-048-051>054-059>061-260200-
CENTRAL ILLINOIS

CITY           SKY/WX    TMP DP  RH WIND       PRES   REMARKS
BLOOMINGTON    CLEAR     78  61  55 SE7       29.95R HX  80
DECATUR        CLEAR     79  62  56 S3        29.94R HX  80
PEORIA         CLEAR     78  61  55 CALM      29.91R HX  80
LACON*         CLEAR     74  62  65 CALM      29.91R
LINCOLN*       CLEAR     77  63  61 CALM      29.92R
SPRINGFIELD    CLEAR     79  63  57 S5        29.92R HX  80
TAYLORVILLE    NOT AVBL
$$

ILZ033-039-045-046-055>057-062-063-260200-
EAST-CENTRAL ILLINOIS

CITY           SKY/WX    TMP DP  RH WIND       PRES   REMARKS
CHAMPAIGN      PTCLDY    76  59  55 S5        29.95R
MATTOON        CLEAR     81  60  48 S5        29.94R HX  82
PARIS*         CLEAR     76  62  62 CALM      29.96R
$$

ILZ079-100>102-260200-
SOUTHWEST ILLINOIS

CITY           SKY/WX    TMP DP  RH WIND       PRES   REMARKS
ALTON          CLEAR     79  64  61 S9        29.92R HX  81
BELLEVILLE     CLEAR     78  62  57 CALM      29.91R
CAHOKIA*       CLEAR     80  61  52 S5        29.91R HX  81
SPARTA*        CLEAR     79  62  55 CALM      29.94S HX  81
$$

ILZ064>066-069>071-074>076-080>082-084>086-088>090-092>094-260200-
SOUTH-CENTRAL ILLINOIS

CITY           SKY/WX    TMP DP  RH WIND       PRES   REMARKS
CARBONDALE     CLEAR     73  67  81 CALM      29.93R
CAIRO*         CLEAR     73  69  90 CALM      29.93R
EFFINGHAM*     PTCLDY    76  61  59 CALM      29.96R
MARION         CLEAR     81  64  57 CALM      29.95R HX  82
MT. VERNON       N/A     77  66  68 CALM      29.94R
CENTRALIA*     CLEAR     76  64  66 CALM      29.93R
SALEM*         PTCLDY    83  62  48 CALM      29.94R HX  83
METROPOLIS*    CLEAR     74  67  78 CALM      29.94S
$$

ILZ067-068-072-073-078-083-087-091-260200-
SOUTHEAST ILLINOIS

CITY           SKY/WX    TMP DP  RH WIND       PRES   REMARKS
LAWRENCEVILLE  CLEAR     79  64  60 S5        29.94R HX  81
FLORA*         CLEAR     76  64  67 S3        29.94R
FAIRFIELD*     CLEAR     75  62  62 CALM      29.93R
HARRISBURG*    CLEAR     77  65  65 CALM      29.94R
ROBINSON*      CLEAR     72  66  81 S3        29.95R
CARMI*         CLEAR     74  66  76 SE5       29.94R
$$

ABBREVIATIONS USED IN REMARKS
   TC - TEMPERATURE IN CELSIUS
  WCI - WIND CHILL INDEX
   HX - HEAT INDEX
  VSB - VISIBILITY
$$





USA.gov is the U.S. government's official web portal to all federal, state and local government web resources and services.